TimeEDT,TemperatureF,Dew PointF,Humidity,Sea Level PressureIn,VisibilityMPH,Wind Direction,Wind SpeedMPH,Gust SpeedMPH,PrecipitationIn,Events,Conditions,WindDirDegrees,DateUTC
12:15 AM,60.8,59.0,94,29.73,7.0,SW,5.8,-,N/A,,Scattered Clouds,230,2014-04-26 04:15:00
12:35 AM,60.8,60.8,100,29.74,7.0,WSW,9.2,-,N/A,,Scattered Clouds,250,2014-04-26 04:35:00
12:55 AM,60.8,60.8,100,29.74,7.0,West,6.9,-,N/A,,Mostly Cloudy,260,2014-04-26 04:55:00
1:15 AM,60.8,60.8,100,29.74,5.0,West,8.1,-,N/A,,Overcast,260,2014-04-26 05:15:00
1:35 AM,60.8,60.8,100,29.74,5.0,West,6.9,-,N/A,,Overcast,260,2014-04-26 05:35:00
1:55 AM,60.8,60.8,100,29.74,5.0,West,6.9,-,N/A,,Mostly Cloudy,280,2014-04-26 05:55:00
2:15 AM,60.8,60.8,100,29.75,5.0,West,8.1,-,N/A,,Scattered Clouds,280,2014-04-26 06:15:00
2:35 AM,60.8,60.8,100,29.74,7.0,West,8.1,-,N/A,,Clear,280,2014-04-26 06:35:00
2:55 AM,60.8,60.8,100,29.75,5.0,West,9.2,-,N/A,,Clear,280,2014-04-26 06:55:00
3:15 AM,60.8,59.0,94,29.76,7.0,West,10.4,16.1,N/A,,Clear,280,2014-04-26 07:15:00
3:35 AM,60.8,57.2,88,29.77,5.0,West,9.2,-,N/A,,Clear,280,2014-04-26 07:35:00
3:55 AM,60.8,57.2,88,29.78,5.0,West,10.4,-,N/A,,Clear,280,2014-04-26 07:55:00
4:15 AM,60.8,55.4,82,29.79,7.0,West,6.9,-,N/A,,Clear,280,2014-04-26 08:15:00
4:35 AM,59.0,55.4,88,29.80,7.0,WNW,9.2,-,N/A,,Clear,300,2014-04-26 08:35:00
4:55 AM,59.0,53.6,82,29.81,7.0,WNW,6.9,-,N/A,,Clear,290,2014-04-26 08:55:00
5:15 AM,57.2,51.8,82,29.82,5.0,WNW,8.1,-,N/A,,Haze,300,2014-04-26 09:15:00
5:35 AM,57.2,51.8,82,29.83,5.0,WNW,6.9,-,N/A,,Haze,300,2014-04-26 09:35:00
5:55 AM,55.4,50.0,82,29.84,7.0,WNW,5.8,-,N/A,,Clear,290,2014-04-26 09:55:00
6:15 AM,55.4,48.2,77,29.86,7.0,WNW,5.8,-,N/A,,Clear,290,2014-04-26 10:15:00
6:35 AM,55.4,48.2,77,29.88,7.0,WNW,5.8,-,N/A,,Clear,290,2014-04-26 10:35:00
6:55 AM,55.4,48.2,77,29.89,4.0,NW,4.6,-,N/A,,Haze,310,2014-04-26 10:55:00
7:15 AM,55.4,48.2,77,29.90,5.0,WNW,5.8,-,N/A,,Haze,300,2014-04-26 11:15:00
7:35 AM,55.4,48.2,77,29.90,5.0,NW,4.6,-,N/A,,Haze,310,2014-04-26 11:35:00
7:55 AM,57.2,48.2,72,29.91,3.0,WNW,8.1,-,N/A,,Haze,300,2014-04-26 11:55:00
8:15 AM,59.0,46.4,63,29.92,5.0,WNW,9.2,-,N/A,,Haze,300,2014-04-26 12:15:00
8:35 AM,60.8,46.4,59,29.92,5.0,NW,9.2,-,N/A,,Haze,310,2014-04-26 12:35:00
8:55 AM,60.8,44.6,55,29.94,5.0,NW,8.1,-,N/A,,Haze,310,2014-04-26 12:55:00
9:15 AM,62.6,44.6,52,29.95,5.0,NW,9.2,-,N/A,,Haze,310,2014-04-26 13:15:00
9:35 AM,62.6,42.8,48,29.95,5.0,NW,12.7,17.3,N/A,,Haze,320,2014-04-26 13:35:00
9:55 AM,64.4,41.0,42,29.95,7.0,NW,10.4,-,N/A,,Clear,310,2014-04-26 13:55:00
10:15 AM,66.2,39.2,37,29.96,7.0,NW,16.1,21.9,N/A,,Clear,320,2014-04-26 14:15:00
10:35 AM,66.2,39.2,37,29.97,7.0,NW,8.1,-,N/A,,Clear,320,2014-04-26 14:35:00
10:55 AM,68.0,39.2,35,29.97,7.0,WNW,13.8,19.6,N/A,,Clear,300,2014-04-26 14:55:00
11:15 AM,69.8,37.4,31,29.96,5.0,NNW,9.2,17.3,N/A,,Haze,340,2014-04-26 15:15:00
11:35 AM,69.8,37.4,31,29.96,7.0,NNW,12.7,19.6,N/A,,Clear,330,2014-04-26 15:35:00
11:55 AM,69.8,37.4,31,29.95,7.0,NW,10.4,-,N/A,,Clear,320,2014-04-26 15:55:00
12:15 PM,69.8,37.4,31,29.95,5.0,NW,6.9,-,N/A,,Haze,320,2014-04-26 16:15:00
12:35 PM,71.6,41.0,33,29.94,7.0,NW,8.1,-,N/A,,Clear,320,2014-04-26 16:35:00
12:55 PM,71.6,42.8,35,29.93,7.0,Calm,Calm,-,N/A,,Clear,0,2014-04-26 16:55:00
1:15 PM,71.6,44.6,38,29.92,7.0,SW,8.1,-,N/A,,Clear,220,2014-04-26 17:15:00
1:35 PM,71.6,42.8,35,29.91,7.0,Calm,Calm,-,N/A,,Clear,0,2014-04-26 17:35:00
1:55 PM,71.6,44.6,38,29.90,7.0,SSW,8.1,-,N/A,,Clear,210,2014-04-26 17:55:00
2:15 PM,73.4,44.6,36,29.90,7.0,South,10.4,-,N/A,,Clear,190,2014-04-26 18:15:00
2:35 PM,73.4,46.4,38,29.90,7.0,SSW,11.5,-,N/A,,Clear,200,2014-04-26 18:35:00
2:55 PM,73.4,44.6,36,29.89,7.0,SSW,6.9,-,N/A,,Clear,210,2014-04-26 18:55:00
3:15 PM,73.4,46.4,38,29.89,10.0,SSW,10.4,16.1,N/A,,Clear,200,2014-04-26 19:15:00
3:35 PM,75.2,46.4,36,29.88,7.0,WSW,9.2,-,N/A,,Clear,240,2014-04-26 19:35:00
3:55 PM,75.2,46.4,36,29.87,7.0,SSW,9.2,-,N/A,,Clear,200,2014-04-26 19:55:00
4:15 PM,75.2,46.4,36,29.87,7.0,WSW,11.5,17.3,N/A,,Clear,240,2014-04-26 20:15:00
4:35 PM,75.2,46.4,36,29.86,10.0,SSW,13.8,18.4,N/A,,Clear,200,2014-04-26 20:35:00
4:55 PM,75.2,46.4,36,29.86,7.0,SW,12.7,-,N/A,,Clear,220,2014-04-26 20:55:00
5:15 PM,75.2,46.4,36,29.86,7.0,SW,10.4,16.1,N/A,,Clear,220,2014-04-26 21:15:00
5:35 PM,75.2,46.4,36,29.86,10.0,SW,9.2,18.4,N/A,,Clear,230,2014-04-26 21:35:00
5:55 PM,75.2,46.4,36,29.86,10.0,SW,11.5,18.4,N/A,,Clear,220,2014-04-26 21:55:00
6:15 PM,75.2,46.4,36,29.86,10.0,SSW,10.4,17.3,N/A,,Clear,210,2014-04-26 22:15:00
6:35 PM,75.2,46.4,36,29.85,7.0,SW,12.7,17.3,N/A,,Clear,220,2014-04-26 22:35:00
6:55 PM,73.4,46.4,38,29.85,7.0,SW,9.2,-,N/A,,Clear,220,2014-04-26 22:55:00
7:15 PM,73.4,46.4,38,29.85,10.0,SSW,8.1,-,N/A,,Clear,210,2014-04-26 23:15:00
7:35 PM,71.6,48.2,43,29.85,10.0,SSW,8.1,-,N/A,,Clear,210,2014-04-26 23:35:00
7:55 PM,69.8,48.2,46,29.85,10.0,SSW,6.9,-,N/A,,Clear,200,2014-04-26 23:55:00
8:15 PM,66.2,48.2,52,29.86,10.0,South,5.8,-,N/A,,Clear,190,2014-04-27 00:15:00
8:35 PM,66.2,48.2,52,29.86,7.0,SSW,6.9,-,N/A,,Clear,200,2014-04-27 00:35:00
8:55 PM,64.4,50.0,59,29.86,7.0,South,5.8,-,N/A,,Clear,190,2014-04-27 00:55:00
9:15 PM,64.4,50.0,59,29.87,10.0,SSW,6.9,-,N/A,,Clear,200,2014-04-27 01:15:00
9:35 PM,64.4,50.0,59,29.87,7.0,South,5.8,-,N/A,,Clear,190,2014-04-27 01:35:00
10:15 PM,62.6,50.0,63,29.87,10.0,South,6.9,-,N/A,,Clear,190,2014-04-27 02:15:00
10:35 PM,62.6,51.8,68,29.87,10.0,South,9.2,-,N/A,,Clear,190,2014-04-27 02:35:00
10:55 PM,62.6,51.8,68,29.87,10.0,South,6.9,-,N/A,,Clear,190,2014-04-27 02:55:00
11:15 PM,62.6,51.8,68,29.87,10.0,South,8.1,-,N/A,,Clear,190,2014-04-27 03:15:00
11:35 PM,62.6,51.8,68,29.87,10.0,SSW,10.4,-,N/A,,Clear,200,2014-04-27 03:35:00
11:55 PM,64.4,50.0,59,29.87,10.0,SSW,9.2,-,N/A,,Clear,210,2014-04-27 03:55:00